"read_dt","SO2 (ppb)","flags","PMT voltage (V)","lamp voltage (V)","lamp intensity (Hz)","internal temp (C)","react chamber temp (C)","sample flow (l/min)","pres (mmHg)","SO2 bkg (ppb)","SO2 coefficient"
2014-06-28 00:00:00,1766E-3,5C000000,-0724,0839,12176,028.2,045.5,0.484,732.2,01.19,0.508
2014-06-28 00:01:00,1865E-3,5C000000,-0724,0839,12183,028.2,045.5,0.484,732.2,01.19,0.508
2014-06-28 00:02:00,1863E-3,5C000000,-0724,0840,11941,028.2,045.5,0.484,732.2,01.19,0.508
2014-06-28 00:03:00,1748E-3,5C000000,-0724,0838,12074,028.2,045.5,0.484,732.3,01.19,0.508
2014-06-28 00:04:00,1891E-3,5C000000,-0724,0839,12174,028.2,045.5,0.484,732.1,01.19,0.508
2014-06-28 00:05:00,1753E-3,5C000000,-0724,0839,12199,028.2,045.5,0.484,732.3,01.19,0.508
2014-06-28 00:06:00,1827E-3,5C000000,-0724,0839,11952,028.2,045.5,0.484,732.2,01.19,0.508
2014-06-28 00:07:00,1688E-3,5C000000,-0724,0839,12237,028.1,045.5,0.484,732.1,01.19,0.508
2014-06-28 00:08:00,1863E-3,5C000000,-0724,0839,12174,028.2,045.5,0.484,732.2,01.19,0.508
2014-06-28 00:09:00,1899E-3,5C000000,-0724,0839,12082,028.1,045.5,0.484,732.3,01.19,0.508
2014-06-28 00:10:00,1777E-3,5C000000,-0724,0838,11970,028.2,045.5,0.484,732.2,01.19,0.508
2014-06-28 00:11:00,1745E-3,5C000000,-0724,0839,12254,028.1,045.5,0.484,732.3,01.19,0.508
2014-06-28 00:12:00,1850E-3,5C000000,-0724,0839,12097,028.2,045.5,0.484,732.3,01.19,0.508
2014-06-28 00:13:00,1731E-3,5C000000,-0724,0839,12153,028.2,045.5,0.484,732.3,01.19,0.508
2014-06-28 00:14:00,1718E-3,5C000000,-0724,0839,12144,028.1,045.5,0.484,732.3,01.19,0.508
2014-06-28 00:15:00,1896E-3,5C000000,-0724,0838,12120,028.1,045.5,0.484,732.3,01.19,0.508
2014-06-28 00:16:00,1821E-3,5C000000,-0724,0839,12193,028.2,045.5,0.484,732.4,01.19,0.508
2014-06-28 00:17:00,1740E-3,5C000000,-0724,0839,12179,028.2,045.5,0.484,732.2,01.19,0.508
2014-06-28 00:18:00,1913E-3,5C000000,-0724,0839,12027,028.2,045.5,0.484,732.2,01.19,0.508
2014-06-28 00:19:00,1822E-3,5C000000,-0724,0839,12130,028.2,045.5,0.484,732.1,01.19,0.508
2014-06-28 00:20:00,1875E-3,5C000000,-0724,0839,12053,028.2,045.5,0.484,732.1,01.19,0.508
2014-06-28 00:21:00,1807E-3,5C000000,-0724,0839,12335,028.1,045.5,0.484,732.3,01.19,0.508
2014-06-28 00:22:00,1713E-3,5C000000,-0724,0839,12064,028.2,045.5,0.483,732.3,01.19,0.508
2014-06-28 00:23:00,1829E-3,5C000000,-0724,0840,12208,028.2,045.5,0.484,732.3,01.19,0.508
2014-06-28 00:24:00,1749E-3,5C000000,-0724,0839,12113,028.2,045.5,0.484,732.2,01.19,0.508
2014-06-28 00:25:00,1901E-3,5C000000,-0724,0840,12226,028.2,045.5,0.484,732.3,01.19,0.508
2014-06-28 00:26:00,1802E-3,5C000000,-0724,0839,12178,028.2,045.5,0.484,732.3,01.19,0.508
2014-06-28 00:27:00,1931E-3,5C000000,-0724,0838,12169,028.2,045.5,0.484,732.3,01.19,0.508
2014-06-28 00:28:00,1943E-3,5C000000,-0724,0840,12017,028.2,045.5,0.484,732.4,01.19,0.508
2014-06-28 00:29:00,1778E-3,5C000000,-0724,0838,12202,028.2,045.5,0.484,732.3,01.19,0.508
2014-06-28 00:30:00,1854E-3,5C000000,-0724,0839,12046,028.2,045.5,0.484,732.3,01.19,0.508
2014-06-28 00:31:00,1873E-3,5C000000,-0724,0841,12066,028.2,045.5,0.484,732.4,01.19,0.508
2014-06-28 00:32:00,1722E-3,5C000000,-0724,0839,12099,028.2,045.5,0.484,732.4,01.19,0.508
2014-06-28 00:33:00,1967E-3,5C000000,-0724,0839,12242,028.2,045.5,0.484,732.4,01.19,0.508
2014-06-28 00:34:00,1771E-3,5C000000,-0724,0840,11950,028.2,045.5,0.484,732.4,01.19,0.508
2014-06-28 00:35:00,1750E-3,5C000000,-0724,0840,12115,028.2,045.5,0.484,732.4,01.19,0.508
2014-06-28 00:36:00,1768E-3,5C000000,-0724,0839,11992,028.2,045.5,0.484,732.3,01.19,0.508
2014-06-28 00:37:00,1986E-3,5C000000,-0724,0839,12194,028.2,045.5,0.484,732.4,01.19,0.508
2014-06-28 00:38:00,1766E-3,5C000000,-0724,0838,12229,028.2,045.5,0.484,732.3,01.19,0.508
2014-06-28 00:39:00,1777E-3,5C000000,-0724,0840,12074,028.2,045.5,0.484,732.3,01.19,0.508
2014-06-28 00:40:00,1810E-3,5C000000,-0724,0840,12077,028.2,045.5,0.484,732.3,01.19,0.508
2014-06-28 00:41:00,1846E-3,5C000000,-0724,0840,12006,028.2,045.5,0.484,732.3,01.19,0.508
2014-06-28 00:42:00,1903E-3,5C000000,-0724,0839,12110,028.2,045.5,0.484,732.4,01.19,0.508
2014-06-28 00:43:00,1758E-3,5C000000,-0724,0839,11999,028.2,045.5,0.484,732.4,01.19,0.508
2014-06-28 00:44:00,1855E-3,5C000000,-0724,0840,11990,028.2,045.5,0.484,732.5,01.19,0.508
2014-06-28 00:45:00,1951E-3,5C000000,-0724,0839,12207,028.2,045.5,0.484,732.4,01.19,0.508
2014-06-28 00:46:00,1899E-3,5C000000,-0724,0839,12190,028.2,045.5,0.484,732.4,01.19,0.508
2014-06-28 00:47:00,1838E-3,5C000000,-0724,0839,12085,028.2,045.5,0.484,732.4,01.19,0.508
2014-06-28 00:48:00,1961E-3,5C000000,-0724,0839,11945,028.1,045.5,0.484,732.3,01.19,0.508
2014-06-28 00:49:00,1817E-3,5C000000,-0724,0839,12123,028.2,045.5,0.484,732.5,01.19,0.508
2014-06-28 00:50:00,1786E-3,5C000000,-0724,0839,12174,028.2,045.5,0.484,732.5,01.19,0.508
2014-06-28 00:51:00,1880E-3,5C000000,-0724,0839,12169,028.2,045.5,0.484,732.5,01.19,0.508
2014-06-28 00:52:00,1681E-3,5C000000,-0724,0839,12224,028.2,045.5,0.484,732.3,01.19,0.508
2014-06-28 00:53:00,1768E-3,5C000000,-0724,0839,12138,028.2,045.5,0.484,732.3,01.19,0.508
2014-06-28 00:54:00,1812E-3,5C000000,-0724,0839,12179,028.2,045.5,0.484,732.3,01.19,0.508
2014-06-28 00:55:00,1878E-3,5C000000,-0724,0838,11997,028.2,045.5,0.484,732.4,01.19,0.508
2014-06-28 00:56:00,1959E-3,5C000000,-0724,0839,12145,028.2,045.5,0.484,732.3,01.19,0.508
2014-06-28 00:57:00,1886E-3,5C000000,-0724,0838,12020,028.2,045.5,0.484,732.3,01.19,0.508
2014-06-28 00:58:00,1679E-3,5C000000,-0724,0839,12136,028.2,045.5,0.484,732.4,01.19,0.508
2014-06-28 00:59:00,1875E-3,5C000000,-0724,0839,12154,028.2,045.5,0.484,732.3,01.19,0.508
2014-06-28 01:00:00,1938E-3,5C000000,-0724,0838,11914,028.2,045.5,0.484,732.3,01.19,0.508
2014-06-28 01:01:00,1911E-3,5C000000,-0724,0839,12062,028.2,045.5,0.484,732.5,01.19,0.508
2014-06-28 01:02:00,1788E-3,5C000000,-0724,0838,12202,028.2,045.5,0.484,732.4,01.19,0.508
2014-06-28 01:03:00,1901E-3,5C000000,-0724,0838,12038,028.2,045.5,0.484,732.4,01.19,0.508
2014-06-28 01:04:00,1921E-3,5C000000,-0724,0840,12126,028.2,045.5,0.484,732.5,01.19,0.508
2014-06-28 01:05:00,1820E-3,5C000000,-0724,0839,12008,028.2,045.5,0.484,732.4,01.19,0.508
2014-06-28 01:06:00,1896E-3,5C000000,-0724,0840,12183,028.2,045.5,0.484,732.4,01.19,0.508
2014-06-28 01:07:00,1794E-3,5C000000,-0724,0839,11944,028.2,045.5,0.484,732.4,01.19,0.508
2014-06-28 01:08:00,1817E-3,5C000000,-0724,0838,12080,028.2,045.5,0.484,732.4,01.19,0.508
2014-06-28 01:09:00,1785E-3,5C000000,-0724,0839,12062,028.2,045.5,0.484,732.5,01.19,0.508
2014-06-28 01:10:00,1634E-3,5C000000,-0724,0839,11959,028.2,045.5,0.484,732.4,01.19,0.508
2014-06-28 01:11:00,1847E-3,5C000000,-0724,0839,12135,028.1,045.5,0.484,732.5,01.19,0.508
2014-06-28 01:12:00,1706E-3,5C000000,-0724,0839,12087,028.2,045.5,0.484,732.5,01.19,0.508
2014-06-28 01:13:00,1858E-3,5C000000,-0724,0839,11929,028.2,045.5,0.483,732.4,01.19,0.508
2014-06-28 01:14:00,1915E-3,5C000000,-0724,0840,11987,028.2,045.5,0.484,732.4,01.19,0.508
2014-06-28 01:15:00,1735E-3,5C000000,-0724,0839,12145,028.2,045.5,0.484,732.3,01.19,0.508
2014-06-28 01:16:00,1856E-3,5C000000,-0724,0838,11959,028.2,045.5,0.484,732.5,01.19,0.508
2014-06-28 01:17:00,1794E-3,5C000000,-0724,0839,12244,028.1,045.5,0.484,732.4,01.19,0.508
2014-06-28 01:18:00,1863E-3,5C000000,-0724,0840,12129,028.1,045.5,0.484,732.5,01.19,0.508
2014-06-28 01:19:00,1854E-3,5C000000,-0724,0839,12041,028.1,045.5,0.484,732.5,01.19,0.508
2014-06-28 01:20:00,1989E-3,5C000000,-0724,0839,12040,028.1,045.5,0.484,732.5,01.19,0.508
2014-06-28 01:21:00,1901E-3,5C000000,-0724,0838,12134,028.2,045.5,0.484,732.6,01.19,0.508
2014-06-28 01:22:00,1797E-3,5C000000,-0724,0839,11857,028.1,045.5,0.484,732.6,01.19,0.508
2014-06-28 01:23:00,1806E-3,5C000000,-0724,0839,12130,028.1,045.5,0.484,732.5,01.19,0.508
2014-06-28 01:24:00,1890E-3,5C000000,-0724,0840,12165,028.2,045.5,0.484,732.5,01.19,0.508
2014-06-28 01:25:00,1729E-3,5C000000,-0724,0839,12123,028.1,045.5,0.484,732.5,01.19,0.508
2014-06-28 01:26:00,1934E-3,5C000000,-0724,0839,12041,028.1,045.5,0.484,732.5,01.19,0.508
2014-06-28 01:27:00,1855E-3,5C000000,-0724,0839,12096,028.1,045.5,0.484,732.4,01.19,0.508
2014-06-28 01:28:00,1904E-3,5C000000,-0724,0838,12099,028.1,045.5,0.484,732.4,01.19,0.508
2014-06-28 01:29:00,1761E-3,5C000000,-0724,0841,12175,028.1,045.5,0.484,732.6,01.19,0.508
2014-06-28 01:30:00,1853E-3,5C000000,-0724,0840,12265,028.1,045.5,0.484,732.5,01.19,0.508
2014-06-28 01:31:00,1783E-3,5C000000,-0724,0840,12041,028.1,045.5,0.484,732.4,01.19,0.508
2014-06-28 01:32:00,1815E-3,5C000000,-0724,0839,12126,028.1,045.5,0.484,732.5,01.19,0.508
2014-06-28 01:33:00,1886E-3,5C000000,-0724,0840,12212,028.1,045.5,0.484,732.4,01.19,0.508
2014-06-28 01:34:00,1894E-3,5C000000,-0724,0840,12067,028.2,045.5,0.484,732.3,01.19,0.508
2014-06-28 01:35:00,1792E-3,5C000000,-0724,0840,12203,028.1,045.5,0.484,732.3,01.19,0.508
2014-06-28 01:36:00,2012E-3,5C000000,-0724,0839,12322,028.1,045.5,0.484,732.4,01.19,0.508
2014-06-28 01:37:00,1882E-3,5C000000,-0724,0839,12184,028.1,045.5,0.484,732.4,01.19,0.508
2014-06-28 01:38:00,1912E-3,5C000000,-0724,0839,12034,028.1,045.5,0.484,732.5,01.19,0.508
2014-06-28 01:39:00,1861E-3,5C000000,-0724,0839,12130,028.1,045.5,0.484,732.5,01.19,0.508
2014-06-28 01:40:00,1901E-3,5C000000,-0724,0840,12129,028.1,045.5,0.484,732.5,01.19,0.508
2014-06-28 01:41:00,1723E-3,5C000000,-0724,0839,12089,028.1,045.5,0.484,732.5,01.19,0.508
2014-06-28 01:42:00,1702E-3,5C000000,-0724,0840,12151,028.1,045.5,0.484,732.4,01.19,0.508
2014-06-28 01:43:00,1781E-3,5C000000,-0724,0841,11969,028.1,045.5,0.484,732.4,01.19,0.508
2014-06-28 01:44:00,1866E-3,5C000000,-0724,0839,12058,028.1,045.5,0.484,732.4,01.19,0.508
2014-06-28 01:45:00,1866E-3,5C000000,-0724,0839,12120,028.1,045.5,0.484,732.6,01.19,0.508
2014-06-28 01:46:00,1769E-3,5C000000,-0724,0839,12016,028.1,045.5,0.484,732.4,01.19,0.508
2014-06-28 01:47:00,1845E-3,5C000000,-0724,0839,11852,028.1,045.5,0.484,732.6,01.19,0.508
2014-06-28 01:48:00,1920E-3,5C000000,-0724,0839,11969,028.1,045.5,0.484,732.4,01.19,0.508
2014-06-28 01:49:00,1913E-3,5C000000,-0724,0839,12125,028.1,045.5,0.484,732.6,01.19,0.508
2014-06-28 01:50:00,1886E-3,5C000000,-0724,0839,12056,028.1,045.5,0.484,732.6,01.19,0.508
2014-06-28 01:51:00,1777E-3,5C000000,-0724,0838,12152,028.2,045.5,0.484,732.6,01.19,0.508
2014-06-28 01:52:00,1782E-3,5C000000,-0724,0840,12109,028.1,045.5,0.484,732.5,01.19,0.508
2014-06-28 01:53:00,1744E-3,5C000000,-0724,0840,12041,028.1,045.5,0.484,732.5,01.19,0.508
2014-06-28 01:54:00,1713E-3,5C000000,-0724,0839,12032,028.1,045.5,0.484,732.6,01.19,0.508
2014-06-28 01:55:00,1799E-3,5C000000,-0724,0839,11981,028.1,045.5,0.484,732.4,01.19,0.508
2014-06-28 01:56:00,1937E-3,5C000000,-0724,0839,11886,028.1,045.5,0.484,732.5,01.19,0.508
2014-06-28 01:57:00,1798E-3,5C000000,-0724,0839,12060,028.1,045.5,0.484,732.4,01.19,0.508
2014-06-28 01:58:00,1747E-3,5C000000,-0724,0840,12146,028.1,045.5,0.484,732.5,01.19,0.508
2014-06-28 01:59:00,1694E-3,5C000000,-0724,0840,12203,028.1,045.5,0.484,732.7,01.19,0.508
2014-06-28 02:00:00,1905E-3,5C000000,-0724,0840,12174,028.2,045.5,0.484,732.5,01.19,0.508
2014-06-28 02:01:00,1825E-3,5C000000,-0724,0839,11965,028.1,045.5,0.484,732.5,01.19,0.508
2014-06-28 02:02:00,1746E-3,5C000000,-0724,0838,12051,028.1,045.5,0.484,732.6,01.19,0.508
2014-06-28 02:03:00,1881E-3,5C000000,-0724,0839,11978,028.2,045.5,0.484,732.5,01.19,0.508
2014-06-28 02:04:00,1809E-3,5C000000,-0724,0839,12118,028.1,045.5,0.484,732.5,01.19,0.508
2014-06-28 02:05:00,1844E-3,5C000000,-0724,0839,12046,028.1,045.5,0.484,732.5,01.19,0.508
2014-06-28 02:06:00,1834E-3,5C000000,-0724,0839,12206,028.2,045.5,0.484,732.6,01.19,0.508
2014-06-28 02:07:00,1754E-3,5C000000,-0724,0838,12068,028.1,045.5,0.484,732.6,01.19,0.508
2014-06-28 02:08:00,1648E-3,5C000000,-0724,0840,12263,028.1,045.5,0.484,732.5,01.19,0.508
2014-06-28 02:09:00,1732E-3,5C000000,-0724,0840,12211,028.1,045.5,0.483,732.6,01.19,0.508
2014-06-28 02:10:00,1989E-3,5C000000,-0724,0839,12131,028.1,045.5,0.484,732.6,01.19,0.508
2014-06-28 02:11:00,1650E-3,5C000000,-0724,0840,11989,028.1,045.5,0.484,732.5,01.19,0.508
2014-06-28 02:12:00,1767E-3,5C000000,-0724,0839,12002,028.1,045.5,0.484,732.6,01.19,0.508
2014-06-28 02:13:00,1779E-3,5C000000,-0724,0840,12079,028.1,045.5,0.484,732.6,01.19,0.508
2014-06-28 02:14:00,1854E-3,5C000000,-0724,0840,11993,028.2,045.5,0.484,732.8,01.19,0.508
2014-06-28 02:15:00,1781E-3,5C000000,-0724,0839,12112,028.1,045.5,0.484,732.6,01.19,0.508
2014-06-28 02:16:00,1842E-3,5C000000,-0724,0839,12206,028.1,045.5,0.484,732.7,01.19,0.508
2014-06-28 02:17:00,1929E-3,5C000000,-0724,0839,12148,028.2,045.5,0.484,732.7,01.19,0.508
2014-06-28 02:18:00,1764E-3,5C000000,-0724,0839,12082,028.2,045.5,0.484,732.7,01.19,0.508
2014-06-28 02:19:00,1782E-3,5C000000,-0724,0839,11864,028.1,045.5,0.484,732.5,01.19,0.508
2014-06-28 02:20:00,1737E-3,5C000000,-0724,0839,12106,028.1,045.5,0.484,732.6,01.19,0.508
2014-06-28 02:21:00,1797E-3,5C000000,-0724,0840,12122,028.1,045.5,0.484,732.6,01.19,0.508
2014-06-28 02:22:00,1884E-3,5C000000,-0724,0839,11925,028.2,045.5,0.484,732.6,01.19,0.508
2014-06-28 02:23:00,1735E-3,5C000000,-0724,0839,12214,028.1,045.5,0.484,732.7,01.19,0.508
2014-06-28 02:24:00,1909E-3,5C000000,-0724,0840,12178,028.1,045.5,0.484,732.7,01.19,0.508
2014-06-28 02:25:00,1912E-3,5C000000,-0724,0840,12187,028.1,045.5,0.484,732.7,01.19,0.508
2014-06-28 02:26:00,1942E-3,5C000000,-0724,0839,12172,028.1,045.5,0.484,732.6,01.19,0.508
2014-06-28 02:27:00,1907E-3,5C000000,-0724,0839,12028,028.1,045.5,0.484,732.8,01.19,0.508
2014-06-28 02:28:00,1770E-3,5C000000,-0724,0839,12117,028.1,045.5,0.484,732.8,01.19,0.508
2014-06-28 02:29:00,1827E-3,5C000000,-0724,0840,12276,028.1,045.5,0.484,732.6,01.19,0.508
2014-06-28 02:30:00,1774E-3,5C000000,-0724,0840,12271,028.1,045.5,0.484,732.7,01.19,0.508
2014-06-28 02:31:00,1775E-3,5C000000,-0724,0839,12082,028.1,045.5,0.484,732.7,01.19,0.508
2014-06-28 02:32:00,1834E-3,5C000000,-0724,0838,12031,028.1,045.5,0.484,732.6,01.19,0.508
2014-06-28 02:33:00,1661E-3,5C000000,-0724,0839,12129,028.1,045.5,0.484,732.7,01.19,0.508
2014-06-28 02:34:00,1940E-3,5C000000,-0724,0841,12051,028.2,045.5,0.484,732.8,01.19,0.508
2014-06-28 02:35:00,1876E-3,5C000000,-0724,0838,12126,028.1,045.5,0.484,732.6,01.19,0.508
2014-06-28 02:36:00,1880E-3,5C000000,-0724,0839,12253,028.2,045.5,0.484,732.7,01.19,0.508
2014-06-28 02:37:00,1756E-3,5C000000,-0724,0839,12296,028.1,045.5,0.484,732.6,01.19,0.508
2014-06-28 02:38:00,1750E-3,5C000000,-0724,0839,11834,028.2,045.5,0.484,732.6,01.19,0.508
2014-06-28 02:39:00,1861E-3,5C000000,-0724,0840,12284,028.2,045.5,0.484,732.6,01.19,0.508
2014-06-28 02:40:00,1809E-3,5C000000,-0724,0838,12357,028.2,045.5,0.484,732.5,01.19,0.508
2014-06-28 02:41:00,1709E-3,5C000000,-0724,0840,12107,028.2,045.5,0.484,732.6,01.19,0.508
2014-06-28 02:42:00,1819E-3,5C000000,-0724,0839,11902,028.1,045.5,0.484,732.8,01.19,0.508
2014-06-28 02:43:00,1837E-3,5C000000,-0724,0839,12050,028.2,045.5,0.484,732.7,01.19,0.508
2014-06-28 02:44:00,1763E-3,5C000000,-0724,0840,12247,028.2,045.5,0.484,732.7,01.19,0.508
2014-06-28 02:45:00,1893E-3,5C000000,-0724,0839,12156,028.2,045.5,0.484,732.6,01.19,0.508
2014-06-28 02:46:00,1722E-3,5C000000,-0724,0840,11965,028.2,045.5,0.484,732.7,01.19,0.508
2014-06-28 02:47:00,1875E-3,5C000000,-0724,0840,12121,028.2,045.5,0.484,732.6,01.19,0.508
2014-06-28 02:48:00,1878E-3,5C000000,-0724,0840,12026,028.2,045.5,0.484,732.5,01.19,0.508
2014-06-28 02:49:00,1830E-3,5C000000,-0724,0840,12167,028.2,045.5,0.484,732.6,01.19,0.508
2014-06-28 02:50:00,1886E-3,5C000000,-0724,0840,12006,028.2,045.5,0.484,732.5,01.19,0.508
2014-06-28 02:51:00,1832E-3,5C000000,-0724,0839,12060,028.2,045.5,0.484,732.7,01.19,0.508
2014-06-28 02:52:00,1852E-3,5C000000,-0724,0838,12147,028.2,045.5,0.484,732.7,01.19,0.508
2014-06-28 02:53:00,1843E-3,5C000000,-0724,0840,12143,028.2,045.5,0.484,732.6,01.19,0.508
2014-06-28 02:54:00,1727E-3,5C000000,-0724,0840,12149,028.2,045.5,0.484,732.6,01.19,0.508
2014-06-28 02:55:00,1763E-3,5C000000,-0724,0839,12151,028.2,045.5,0.484,732.8,01.19,0.508
2014-06-28 02:56:00,1810E-3,5C000000,-0724,0839,12102,028.2,045.5,0.484,732.7,01.19,0.508
2014-06-28 02:57:00,1737E-3,5C000000,-0724,0840,12113,028.2,045.5,0.484,732.6,01.19,0.508
2014-06-28 02:58:00,1753E-3,5C000000,-0724,0839,12124,028.2,045.5,0.484,732.7,01.19,0.508
2014-06-28 02:59:00,1780E-3,5C000000,-0724,0840,12187,028.2,045.5,0.484,732.6,01.19,0.508
2014-06-28 03:00:00,1827E-3,5C000000,-0724,0840,12154,028.2,045.5,0.484,732.7,01.19,0.508
2014-06-28 03:01:00,1870E-3,5C000000,-0724,0839,12078,028.2,045.5,0.484,732.5,01.19,0.508
2014-06-28 03:02:00,1792E-3,5C000000,-0724,0840,12010,028.2,045.5,0.484,732.6,01.19,0.508
2014-06-28 03:03:00,1867E-3,5C000000,-0724,0841,12223,028.2,045.5,0.484,732.5,01.19,0.508
2014-06-28 03:04:00,1812E-3,5C000000,-0724,0841,12174,028.2,045.5,0.484,732.5,01.19,0.508
2014-06-28 03:05:00,1754E-3,5C000000,-0724,0840,11917,028.2,045.5,0.484,732.5,01.19,0.508
2014-06-28 03:06:00,1872E-3,5C000000,-0724,0840,11969,028.2,045.5,0.484,732.6,01.19,0.508
2014-06-28 03:07:00,1887E-3,5C000000,-0724,0840,11920,028.2,045.5,0.484,732.6,01.19,0.508
2014-06-28 03:08:00,1863E-3,5C000000,-0724,0839,12171,028.2,045.5,0.484,732.6,01.19,0.508
2014-06-28 03:09:00,1706E-3,5C000000,-0724,0839,12122,028.2,045.5,0.484,732.5,01.19,0.508
2014-06-28 03:10:00,1749E-3,5C000000,-0724,0839,11998,028.2,045.5,0.484,732.5,01.19,0.508
2014-06-28 03:11:00,1866E-3,5C000000,-0724,0840,12047,028.2,045.5,0.484,732.6,01.19,0.508
2014-06-28 03:12:00,1890E-3,5C000000,-0724,0839,12194,028.2,045.5,0.484,732.5,01.19,0.508
2014-06-28 03:13:00,1834E-3,5C000000,-0724,0839,12182,028.2,045.5,0.484,732.4,01.19,0.508
2014-06-28 03:14:00,1850E-3,5C000000,-0724,0839,12055,028.2,045.5,0.483,732.5,01.19,0.508
2014-06-28 03:15:00,1862E-3,5C000000,-0724,0838,12220,028.2,045.5,0.484,732.4,01.19,0.508
2014-06-28 03:16:00,1879E-3,5C000000,-0724,0839,12140,028.2,045.5,0.484,732.5,01.19,0.508
2014-06-28 03:17:00,1713E-3,5C000000,-0724,0841,12107,028.2,045.5,0.483,732.6,01.19,0.508
2014-06-28 03:18:00,1679E-3,5C000000,-0724,0839,12118,028.2,045.5,0.484,732.6,01.19,0.508
2014-06-28 03:19:00,1810E-3,5C000000,-0724,0841,11874,028.2,045.5,0.484,732.6,01.19,0.508
2014-06-28 03:20:00,1752E-3,5C000000,-0724,0839,12124,028.2,045.5,0.484,732.6,01.19,0.508
2014-06-28 03:21:00,1863E-3,5C000000,-0724,0839,12040,028.2,045.5,0.484,732.6,01.19,0.508
2014-06-28 03:22:00,1842E-3,5C000000,-0724,0839,12077,028.2,045.5,0.484,732.5,01.19,0.508
2014-06-28 03:23:00,1844E-3,5C000000,-0724,0839,12027,028.2,045.5,0.484,732.6,01.19,0.508
2014-06-28 03:24:00,1770E-3,5C000000,-0724,0840,12169,028.2,045.5,0.484,732.5,01.19,0.508
2014-06-28 03:25:00,1735E-3,5C000000,-0724,0841,12037,028.2,045.5,0.484,732.4,01.19,0.508
2014-06-28 03:26:00,1815E-3,5C000000,-0724,0840,11844,028.2,045.5,0.484,732.4,01.19,0.508
2014-06-28 03:27:00,1719E-3,5C000000,-0724,0839,11912,028.2,045.5,0.484,732.4,01.19,0.508
2014-06-28 03:28:00,1831E-3,5C000000,-0724,0840,12254,028.2,045.5,0.484,732.5,01.19,0.508
2014-06-28 03:29:00,1748E-3,5C000000,-0724,0839,11973,028.2,045.5,0.484,732.5,01.19,0.508
2014-06-28 03:30:00,1903E-3,5C000000,-0724,0840,12037,028.2,045.5,0.484,732.5,01.19,0.508
2014-06-28 03:31:00,1852E-3,5C000000,-0724,0839,12226,028.2,045.5,0.484,732.5,01.19,0.508
2014-06-28 03:32:00,1795E-3,5C000000,-0724,0840,11960,028.2,045.5,0.483,732.5,01.19,0.508
2014-06-28 03:33:00,1952E-3,5C000000,-0724,0839,12083,028.2,045.5,0.484,732.6,01.19,0.508
2014-06-28 03:34:00,1920E-3,5C000000,-0724,0839,12005,028.2,045.5,0.484,732.6,01.19,0.508
2014-06-28 03:35:00,1856E-3,5C000000,-0724,0840,12313,028.2,045.5,0.483,732.6,01.19,0.508
2014-06-28 03:36:00,1882E-3,5C000000,-0724,0839,12312,028.2,045.5,0.484,732.5,01.19,0.508
2014-06-28 03:37:00,1773E-3,5C000000,-0724,0841,12186,028.2,045.5,0.484,732.5,01.19,0.508
2014-06-28 03:38:00,1897E-3,5C000000,-0724,0840,12021,028.2,045.5,0.483,732.6,01.19,0.508
2014-06-28 03:39:00,1746E-3,5C000000,-0724,0839,12241,028.2,045.5,0.484,732.7,01.19,0.508
2014-06-28 03:40:00,1907E-3,5C000000,-0724,0840,12155,028.2,045.5,0.484,732.5,01.19,0.508
2014-06-28 03:41:00,1814E-3,5C000000,-0724,0839,12347,028.2,045.5,0.483,732.6,01.19,0.508
2014-06-28 03:42:00,1706E-3,5C000000,-0724,0840,11966,028.2,045.5,0.484,732.6,01.19,0.508
2014-06-28 03:43:00,1742E-3,5C000000,-0724,0840,11987,028.2,045.5,0.484,732.5,01.19,0.508
2014-06-28 03:44:00,1974E-3,5C000000,-0724,0839,12191,028.2,045.5,0.483,732.5,01.19,0.508
2014-06-28 03:45:00,1809E-3,5C000000,-0724,0840,12253,028.2,045.5,0.484,732.6,01.19,0.508
2014-06-28 03:46:00,2048E-3,5C000000,-0724,0839,12298,028.3,045.5,0.484,732.6,01.19,0.508
2014-06-28 03:47:00,1887E-3,5C000000,-0724,0840,12252,028.2,045.5,0.484,732.6,01.19,0.508
2014-06-28 03:48:00,1767E-3,5C000000,-0724,0839,12196,028.3,045.5,0.484,732.6,01.19,0.508
2014-06-28 03:49:00,1781E-3,5C000000,-0724,0839,11975,028.3,045.5,0.484,732.7,01.19,0.508
2014-06-28 03:50:00,1817E-3,5C000000,-0724,0839,12083,028.2,045.5,0.484,732.7,01.19,0.508
2014-06-28 03:51:00,1863E-3,5C000000,-0724,0840,12002,028.3,045.5,0.484,732.7,01.19,0.508
2014-06-28 03:52:00,1734E-3,5C000000,-0724,0840,12234,028.2,045.5,0.484,732.6,01.19,0.508
2014-06-28 03:53:00,1952E-3,5C000000,-0724,0840,12198,028.3,045.5,0.484,732.8,01.19,0.508
2014-06-28 03:54:00,1838E-3,5C000000,-0724,0839,12177,028.2,045.5,0.484,732.7,01.19,0.508
2014-06-28 03:55:00,1820E-3,5C000000,-0724,0841,12231,028.3,045.5,0.484,732.5,01.19,0.508
2014-06-28 03:56:00,1894E-3,5C000000,-0724,0840,12147,028.3,045.5,0.484,732.7,01.19,0.508
2014-06-28 03:57:00,1881E-3,5C000000,-0724,0841,11991,028.3,045.5,0.484,732.7,01.19,0.508
2014-06-28 03:58:00,1942E-3,5C000000,-0724,0840,11983,028.3,045.5,0.484,732.7,01.19,0.508
2014-06-28 03:59:00,1843E-3,5C000000,-0724,0840,12100,028.3,045.5,0.484,732.7,01.19,0.508
2014-06-28 04:00:00,1864E-3,5C000000,-0724,0840,12192,028.3,045.5,0.484,732.7,01.19,0.508
2014-06-28 04:01:00,1825E-3,5C000000,-0724,0839,12291,028.3,045.5,0.484,732.8,01.19,0.508
2014-06-28 04:02:00,1817E-3,5C000000,-0724,0841,12296,028.3,045.5,0.484,732.8,01.19,0.508
2014-06-28 04:03:00,1865E-3,5C000000,-0724,0839,11906,028.3,045.5,0.484,732.7,01.19,0.508
2014-06-28 04:04:00,1811E-3,5C000000,-0724,0840,12110,028.3,045.5,0.484,732.7,01.19,0.508
2014-06-28 04:05:00,1912E-3,5C000000,-0724,0839,12240,028.3,045.5,0.484,732.8,01.19,0.508
2014-06-28 04:06:00,1867E-3,5C000000,-0724,0840,12002,028.3,045.5,0.484,732.7,01.19,0.508
2014-06-28 04:07:00,1962E-3,5C000000,-0724,0839,11999,028.3,045.5,0.484,732.8,01.19,0.508
2014-06-28 04:08:00,1852E-3,5C000000,-0724,0839,12037,028.3,045.5,0.483,732.7,01.19,0.508
2014-06-28 04:09:00,1829E-3,5C000000,-0724,0839,12063,028.3,045.5,0.484,732.8,01.19,0.508
2014-06-28 04:10:00,1878E-3,5C000000,-0724,0839,12254,028.3,045.5,0.484,732.7,01.19,0.508
2014-06-28 04:11:00,1861E-3,5C000000,-0724,0839,12125,028.3,045.5,0.483,732.7,01.19,0.508
2014-06-28 04:12:00,1755E-3,5C000000,-0724,0840,12215,028.3,045.5,0.484,732.7,01.19,0.508
2014-06-28 04:13:00,1788E-3,5C000000,-0724,0840,11854,028.3,045.5,0.484,732.7,01.19,0.508
2014-06-28 04:14:00,1877E-3,5C000000,-0724,0839,11997,028.3,045.5,0.483,732.7,01.19,0.508
2014-06-28 04:15:00,1878E-3,5C000000,-0724,0839,12042,028.3,045.5,0.484,732.7,01.19,0.508
2014-06-28 04:16:00,1898E-3,5C000000,-0724,0841,12206,028.3,045.5,0.484,732.7,01.19,0.508
2014-06-28 04:17:00,1844E-3,5C000000,-0724,0839,12014,028.3,045.5,0.483,732.8,01.19,0.508
2014-06-28 04:18:00,1836E-3,5C000000,-0724,0841,12097,028.3,045.5,0.484,732.7,01.19,0.508
2014-06-28 04:19:00,1801E-3,5C000000,-0724,0840,12183,028.3,045.5,0.484,732.7,01.19,0.508
2014-06-28 04:20:00,1806E-3,5C000000,-0724,0840,12071,028.3,045.5,0.483,732.7,01.19,0.508